,,Stat5,,Stat1,,Stat2,,Stat3,,Stat4,,Wind1,,Wind1,
time,status,PA1M_AVG,status,PR1M_SUM,status,RH1M_AVG,status,SR1M_AVG,status,TA1M_AVG,status,W1dAve1m,status,W1sAve1m,
2002-12-03, 00:00:00,VALID,919.453,VALID,0,VALID,97.7152,VALID,-0.101885,VALID,20.3044,VALID,353,VALID,0.339105,
2002-12-03, 00:01:00,VALID,919.447,VALID,0,VALID,97.9212,VALID,-0.118866,VALID,20.3046,VALID,358,VALID,0.403564,
2002-12-03, 00:02:00,VALID,919.439,VALID,0,VALID,97.9517,VALID,-0.101885,VALID,20.2949,VALID,10,VALID,0.560981,
2002-12-03, 00:03:00,VALID,919.463,VALID,0,VALID,97.9898,VALID,-0.101885,VALID,20.2887,VALID,16,VALID,0.717411,
2002-12-03, 00:04:00,VALID,919.491,VALID,0,VALID,98.0407,VALID,-0.101885,VALID,20.2987,VALID,16,VALID,0.680161,
2002-12-03, 00:05:00,VALID,919.487,VALID,0,VALID,98.0979,VALID,-0.101885,VALID,20.285,VALID,18,VALID,0.590061,
2002-12-03, 00:06:00,VALID,919.512,VALID,0,VALID,98.0433,VALID,0,VALID,20.2882,VALID,24,VALID,0.63954,
2002-12-03, 00:07:00,VALID,919.527,VALID,0,VALID,97.9759,VALID,0,VALID,20.2516,VALID,32,VALID,0.629498,
2002-12-03, 00:08:00,VALID,919.554,VALID,0,VALID,98.0255,VALID,0.0169808,VALID,20.2323,VALID,32,VALID,0.409821,
2002-12-03, 00:09:00,VALID,919.565,VALID,0,VALID,98.0153,VALID,0,VALID,20.2191,VALID,32,VALID,0.529018,
2002-12-03, 00:10:00,VALID,919.587,VALID,0,VALID,98.0369,VALID,0,VALID,20.1967,VALID,32,VALID,0.301514,
2002-12-03, 00:11:00,VALID,919.594,VALID,0,VALID,98.1424,VALID,0.0169808,VALID,20.1835,VALID,32,VALID,0.0783306,
2002-12-03, 00:12:00,VALID,919.565,VALID,0,VALID,98.1908,VALID,-0.0169808,VALID,20.2034,VALID,32,VALID,0.169118,
2002-12-03, 00:13:00,VALID,919.565,VALID,0,VALID,98.22,VALID,-0.0169808,VALID,20.2,VALID,32,VALID,0.0326705,
2002-12-03, 00:14:00,VALID,919.548,VALID,0,VALID,98.2658,VALID,0,VALID,20.2029,VALID,32,VALID,0,
2002-12-03, 00:15:00,VALID,919.526,VALID,0,VALID,98.3154,VALID,0.0169808,VALID,20.2069,VALID,29,VALID,0.0147569,
2002-12-03, 00:16:00,VALID,919.516,VALID,0,VALID,98.3612,VALID,0,VALID,20.2104,VALID,20,VALID,0.137547,
2002-12-03, 00:17:00,VALID,919.509,VALID,0,VALID,98.309,VALID,0.0169808,VALID,20.2039,VALID,20,VALID,0.258036,
2002-12-03, 00:18:00,VALID,919.512,VALID,0,VALID,98.3116,VALID,-0.0169808,VALID,20.1776,VALID,20,VALID,0.0671875,
2002-12-03, 00:19:00,VALID,919.506,VALID,0,VALID,98.3701,VALID,0,VALID,20.1843,VALID,20,VALID,0,
2002-12-03, 00:20:00,VALID,919.479,VALID,0,VALID,98.482,VALID,-0.0169808,VALID,20.2169,VALID,20,VALID,0.176604,
2002-12-03, 00:21:00,VALID,919.464,VALID,0,VALID,98.5532,VALID,-0.0169808,VALID,20.2487,VALID,20,VALID,0.263097,
2002-12-03, 00:22:00,VALID,919.43,VALID,0,VALID,98.6613,VALID,0,VALID,20.2874,VALID,20,VALID,0.191761,
2002-12-03, 00:23:00,VALID,919.413,VALID,0,VALID,98.6892,VALID,0,VALID,20.3165,VALID,20,VALID,0.297092,
2002-12-03, 00:24:00,VALID,919.389,VALID,0,VALID,98.6422,VALID,0,VALID,20.326,VALID,20,VALID,0.216146,
2002-12-03, 00:25:00,VALID,919.379,VALID,0,VALID,98.5811,VALID,0,VALID,20.3192,VALID,20,VALID,0.040483,
2002-12-03, 00:26:00,VALID,919.357,VALID,0,VALID,98.5735,VALID,0,VALID,20.3195,VALID,20,VALID,0.300223,
2002-12-03, 00:27:00,VALID,919.343,VALID,0,VALID,98.5315,VALID,0,VALID,20.3106,VALID,20,VALID,0.327232,
2002-12-03, 00:28:00,VALID,919.346,VALID,0,VALID,98.5811,VALID,-0.0169808,VALID,20.323,VALID,23,VALID,0.461182,
2002-12-03, 00:29:00,VALID,919.326,VALID,0,VALID,98.6028,VALID,0,VALID,20.3391,VALID,13,VALID,0.472039,
2002-12-03, 00:30:00,VALID,919.306,VALID,0,VALID,98.6104,VALID,0,VALID,20.3493,VALID,22,VALID,0.54159,
2002-12-03, 00:31:00,VALID,919.28,VALID,0,VALID,98.6536,VALID,-0.0169808,VALID,20.3583,VALID,23,VALID,0.125473,
2002-12-03, 00:32:00,VALID,919.271,VALID,0,VALID,98.7236,VALID,0.0169808,VALID,20.3935,VALID,23,VALID,0,
2002-12-03, 00:33:00,VALID,919.269,VALID,0,VALID,98.7274,VALID,0.0339617,VALID,20.4162,VALID,23,VALID,0.0983073,
2002-12-03, 00:34:00,VALID,919.254,VALID,0,VALID,98.721,VALID,0.0169808,VALID,20.4259,VALID,23,VALID,0.215909,
2002-12-03, 00:35:00,VALID,919.251,VALID,0,VALID,98.6587,VALID,0.0169808,VALID,20.4199,VALID,23,VALID,0.0160714,
2002-12-03, 00:36:00,VALID,919.25,VALID,0,VALID,98.5913,VALID,-0.0849042,VALID,20.3851,VALID,23,VALID,0.0430804,
2002-12-03, 00:37:00,VALID,919.263,VALID,0,VALID,98.5939,VALID,-0.0849042,VALID,20.3725,VALID,23,VALID,0,
2002-12-03, 00:38:00,VALID,919.246,VALID,0,VALID,98.5341,VALID,-0.0849042,VALID,20.366,VALID,23,VALID,0,
2002-12-03, 00:39:00,VALID,919.247,VALID,0,VALID,98.4375,VALID,-0.0849042,VALID,20.3536,VALID,23,VALID,0,
2002-12-03, 00:40:00,VALID,919.248,VALID,0,VALID,98.4527,VALID,-0.101885,VALID,20.3175,VALID,23,VALID,0.00378788,
2002-12-03, 00:41:00,VALID,919.246,VALID,0,VALID,98.5188,VALID,-0.101885,VALID,20.3277,VALID,23,VALID,0.0295139,
2002-12-03, 00:42:00,VALID,919.237,VALID,0,VALID,98.5366,VALID,-0.101885,VALID,20.3504,VALID,23,VALID,0.162109,
2002-12-03, 00:43:00,VALID,919.215,VALID,0,VALID,98.5379,VALID,-0.101885,VALID,20.3436,VALID,25,VALID,0.233902,
2002-12-03, 00:44:00,VALID,919.208,VALID,0,VALID,98.5099,VALID,-0.101885,VALID,20.3431,VALID,35,VALID,0.226116,
2002-12-03, 00:45:00,VALID,919.184,VALID,0,VALID,98.44,VALID,-0.101885,VALID,20.3402,VALID,34,VALID,0.00334821,
2002-12-03, 00:46:00,VALID,919.164,VALID,0,VALID,98.4082,VALID,-0.101885,VALID,20.3275,VALID,33,VALID,0,
2002-12-03, 00:47:00,VALID,919.16,VALID,0,VALID,98.4184,VALID,-0.0679233,VALID,20.3434,VALID,33,VALID,0.00102796,
2002-12-03, 00:48:00,VALID,919.145,VALID,0,VALID,98.4324,VALID,-0.101885,VALID,20.3568,VALID,33,VALID,0.000919118,
2002-12-03, 00:49:00,VALID,919.152,VALID,0,VALID,98.4553,VALID,-0.101885,VALID,20.3692,VALID,33,VALID,0.0608428,
2002-12-03, 00:50:00,VALID,919.149,VALID,0,VALID,98.487,VALID,-0.0849042,VALID,20.3884,VALID,33,VALID,0.253472,
2002-12-03, 00:51:00,VALID,919.162,VALID,0,VALID,98.4069,VALID,-0.0169808,VALID,20.3906,VALID,33,VALID,0.345052,
2002-12-03, 00:52:00,VALID,919.162,VALID,0,VALID,98.3777,VALID,0.0339617,VALID,20.3903,VALID,31,VALID,0.468513,
2002-12-03, 00:53:00,VALID,919.146,VALID,0,VALID,98.398,VALID,0.0169808,VALID,20.3968,VALID,23,VALID,0.505134,
2002-12-03, 00:54:00,VALID,919.14,VALID,0,VALID,98.3853,VALID,0,VALID,20.3901,VALID,32,VALID,0.408705,
2002-12-03, 00:55:00,VALID,919.118,VALID,0,VALID,98.3968,VALID,0.0169808,VALID,20.3968,VALID,15,VALID,0.342285,
2002-12-03, 00:56:00,VALID,919.102,VALID,0,VALID,98.3726,VALID,0,VALID,20.4003,VALID,23,VALID,0.473273,
2002-12-03, 00:57:00,VALID,919.091,VALID,0,VALID,98.351,VALID,0.0509425,VALID,20.3903,VALID,14,VALID,0.349724,
2002-12-03, 00:58:00,VALID,919.056,VALID,0,VALID,98.3077,VALID,0.0169808,VALID,20.3776,VALID,14,VALID,0.344934,
2002-12-03, 00:59:00,VALID,919.034,VALID,0,VALID,98.1908,VALID,0,VALID,20.3448,VALID,14,VALID,0.364583,
2002-12-03, 01:00:00,VALID,919.013,VALID,0,VALID,98.1005,VALID,0.0169808,VALID,20.2999,VALID,14,VALID,0.379774,
2002-12-03, 01:01:00,VALID,918.985,VALID,0,VALID,98.1501,VALID,0.0169808,VALID,20.2964,VALID,14,VALID,0.40625,
2002-12-03, 01:02:00,VALID,918.975,VALID,0,VALID,98.075,VALID,0,VALID,20.2643,VALID,14,VALID,0.354241,
2002-12-03, 01:03:00,VALID,918.984,VALID,0,VALID,98.0725,VALID,0,VALID,20.2454,VALID,14,VALID,0.380357,
2002-12-03, 01:04:00,VALID,918.97,VALID,0,VALID,98.0636,VALID,0,VALID,20.2258,VALID,14,VALID,0.324219,
2002-12-03, 01:05:00,VALID,918.96,VALID,0,VALID,98.0878,VALID,0.0169808,VALID,20.2059,VALID,14,VALID,0.451069,
2002-12-03, 01:06:00,VALID,918.957,VALID,0,VALID,98.0979,VALID,0.0169808,VALID,20.2062,VALID,14,VALID,0.550551,
2002-12-03, 01:07:00,VALID,918.956,VALID,0,VALID,98.0611,VALID,-0.0169808,VALID,20.2007,VALID,20,VALID,0.647491,
2002-12-03, 01:08:00,VALID,918.952,VALID,0,VALID,98.0979,VALID,0.0169808,VALID,20.1806,VALID,26,VALID,0.713759,
2002-12-03, 01:09:00,VALID,918.966,VALID,0,VALID,98.1552,VALID,-0.0169808,VALID,20.1935,VALID,16,VALID,0.903429,
2002-12-03, 01:10:00,VALID,918.966,VALID,0,VALID,98.131,VALID,0,VALID,20.1935,VALID,23,VALID,1.05327,
2002-12-03, 01:11:00,VALID,918.985,VALID,0,VALID,98.0941,VALID,0,VALID,20.1679,VALID,16,VALID,1.18996,
2002-12-03, 01:12:00,VALID,918.998,VALID,0,VALID,98.0814,VALID,0,VALID,20.1585,VALID,23,VALID,0.931696,
2002-12-03, 01:13:00,VALID,919.019,VALID,0,VALID,98.0954,VALID,0,VALID,20.1418,VALID,15,VALID,1.05176,
2002-12-03, 01:14:00,VALID,919.036,VALID,0,VALID,98.0547,VALID,0,VALID,20.1162,VALID,21,VALID,1.1472,
2002-12-03, 01:15:00,VALID,919.045,VALID,0,VALID,98.1119,VALID,0,VALID,20.1262,VALID,360,VALID,0.664292,
2002-12-03, 01:16:00,VALID,919.026,VALID,0,VALID,98.07,VALID,0,VALID,20.0971,VALID,20,VALID,0.99929,
2002-12-03, 01:17:00,VALID,919.011,VALID,0,VALID,98.1463,VALID,0,VALID,20.0906,VALID,35,VALID,0.805122,
2002-12-03, 01:18:00,VALID,918.983,VALID,0,VALID,98.1539,VALID,0.0169808,VALID,20.0909,VALID,10,VALID,0.822266,
2002-12-03, 01:19:00,VALID,918.965,VALID,0,VALID,98.0598,VALID,0,VALID,20.0387,VALID,360,VALID,0.938447,
2002-12-03, 01:20:00,VALID,918.935,VALID,0,VALID,98.0064,VALID,0,VALID,20.0002,VALID,352,VALID,0.91808,
2002-12-03, 01:21:00,VALID,918.924,VALID,0,VALID,97.9326,VALID,-0.0849042,VALID,19.9589,VALID,357,VALID,0.951786,
2002-12-03, 01:22:00,VALID,918.928,VALID,0,VALID,97.9326,VALID,-0.0849042,VALID,19.9204,VALID,1,VALID,0.978027,
2002-12-03, 01:23:00,VALID,918.918,VALID,0,VALID,97.9962,VALID,-0.0509425,VALID,19.8878,VALID,2,VALID,1.02611,
2002-12-03, 01:24:00,VALID,918.929,VALID,0,VALID,98.1043,VALID,-0.101885,VALID,19.8523,VALID,5,VALID,1.15901,
2002-12-03, 01:25:01,VALID,918.934,VALID,0,VALID,98.2225,VALID,-0.0849042,VALID,19.8558,VALID,2,VALID,1.12358,
2002-12-03, 01:26:00,VALID,918.934,VALID,0,VALID,98.3116,VALID,-0.101885,VALID,19.8558,VALID,26,VALID,0.983941,
2002-12-03, 01:27:00,VALID,918.924,VALID,0,VALID,98.3383,VALID,-0.0849042,VALID,19.8396,VALID,341,VALID,0.65842,
2002-12-03, 01:28:00,VALID,918.927,VALID,0,VALID,98.3319,VALID,-0.0849042,VALID,19.8173,VALID,342,VALID,0.476326,
2002-12-03, 01:29:00,VALID,918.913,VALID,0,VALID,98.3141,VALID,-0.0849042,VALID,19.7979,VALID,343,VALID,0.141518,
2002-12-03, 01:30:00,VALID,918.886,VALID,0,VALID,98.3344,VALID,-0.101885,VALID,19.7815,VALID,343,VALID,0.242411,
2002-12-03, 01:31:00,VALID,918.861,VALID,0,VALID,98.3128,VALID,-0.0849042,VALID,19.7688,VALID,297,VALID,0.249756,
2002-12-03, 01:32:00,VALID,918.835,VALID,0,VALID,98.3319,VALID,-0.0849042,VALID,19.7556,VALID,294,VALID,0.137336,
2002-12-03, 01:33:01,VALID,918.813,VALID,0,VALID,98.3179,VALID,-0.0849042,VALID,19.733,VALID,294,VALID,0.0344669,
2002-12-03, 01:34:01,VALID,918.782,VALID,0,VALID,98.3154,VALID,-0.101885,VALID,19.7236,VALID,295,VALID,0.184659,
2002-12-03, 01:35:00,VALID,918.766,VALID,0,VALID,98.351,VALID,-0.101885,VALID,19.7268,VALID,303,VALID,0.318142,
2002-12-03, 01:36:00,VALID,918.727,VALID,0,VALID,98.3421,VALID,0,VALID,19.7261,VALID,303,VALID,0.253906,
2002-12-03, 01:37:00,VALID,918.717,VALID,0,VALID,98.3637,VALID,0,VALID,19.7059,VALID,286,VALID,0.333333,
2002-12-03, 01:38:00,VALID,918.697,VALID,0,VALID,98.4031,VALID,0.0169808,VALID,19.7089,VALID,286,VALID,0.0571429,
2002-12-03, 01:39:00,VALID,918.69,VALID,0,VALID,98.4921,VALID,0.0169808,VALID,19.7221,VALID,286,VALID,0,
2002-12-03, 01:40:00,VALID,918.686,VALID,0,VALID,98.4387,VALID,0,VALID,19.7226,VALID,286,VALID,0,
2002-12-03, 01:41:00,VALID,918.683,VALID,0,VALID,98.3344,VALID,0,VALID,19.7062,VALID,286,VALID,0.0964227,
2002-12-03, 01:42:01,VALID,918.702,VALID,0,VALID,98.3103,VALID,0,VALID,19.6739,VALID,286,VALID,0.0402114,
2002-12-03, 01:43:01,VALID,918.693,VALID,0,VALID,98.2912,VALID,0,VALID,19.6647,VALID,286,VALID,0.0227273,
2002-12-03, 01:44:00,VALID,918.698,VALID,0,VALID,98.2823,VALID,0,VALID,19.6349,VALID,286,VALID,0,
2002-12-03, 01:45:00,VALID,918.669,VALID,0,VALID,98.2874,VALID,0.0169808,VALID,19.6383,VALID,286,VALID,0,
2002-12-03, 01:46:00,VALID,918.635,VALID,0,VALID,98.2696,VALID,0,VALID,19.6388,VALID,286,VALID,0,
2002-12-03, 01:47:00,VALID,918.587,VALID,0,VALID,98.2467,VALID,0.0169808,VALID,19.6063,VALID,286,VALID,0,
2002-12-03, 01:48:00,VALID,918.556,VALID,0,VALID,98.276,VALID,0.0339617,VALID,19.5899,VALID,286,VALID,0,
2002-12-03, 01:49:00,VALID,918.506,VALID,0,VALID,98.3154,VALID,0,VALID,19.5936,VALID,286,VALID,0,
2002-12-03, 01:50:01,VALID,918.476,VALID,0,VALID,98.3891,VALID,0.0169808,VALID,19.6093,VALID,286,VALID,0,
2002-12-03, 01:51:01,VALID,918.441,VALID,0,VALID,98.4057,VALID,-0.0339617,VALID,19.6113,VALID,286,VALID,0,
2002-12-03, 01:52:01,VALID,918.435,VALID,0,VALID,98.3065,VALID,-0.101885,VALID,19.5852,VALID,286,VALID,0.0163352,
2002-12-03, 01:53:00,VALID,918.413,VALID,0,VALID,98.192,VALID,-0.101885,VALID,19.5441,VALID,262,VALID,0.239366,
2002-12-03, 01:54:00,VALID,918.413,VALID,0,VALID,98.1424,VALID,-0.0849042,VALID,19.495,VALID,253,VALID,0.1773,
2002-12-03, 01:55:00,VALID,918.389,VALID,0,VALID,98.0979,VALID,-0.101885,VALID,19.4495,VALID,253,VALID,0.0241477,
2002-12-03, 01:56:00,VALID,918.386,VALID,0,VALID,98.0878,VALID,-0.101885,VALID,19.4209,VALID,253,VALID,0,
2002-12-03, 01:57:00,VALID,918.364,VALID,0,VALID,97.9123,VALID,-0.101885,VALID,19.3531,VALID,253,VALID,0,
2002-12-03, 01:58:00,VALID,918.348,VALID,0,VALID,97.5244,VALID,-0.101885,VALID,19.2303,VALID,253,VALID,0.1875,
2002-12-03, 01:59:00,VALID,918.323,VALID,0,VALID,97.5575,VALID,-0.101885,VALID,19.156,VALID,340,VALID,0.309416,
2002-12-03, 02:00:01,VALID,918.305,VALID,0,VALID,97.7266,VALID,-0.101885,VALID,19.1299,VALID,39,VALID,0.374311,
2002-12-03, 02:01:01,VALID,918.284,VALID,0,VALID,97.8029,VALID,-0.0849042,VALID,19.1046,VALID,39,VALID,0.202415,
2002-12-03, 02:02:00,VALID,918.288,VALID,0,VALID,97.9059,VALID,-0.0849042,VALID,19.0946,VALID,39,VALID,0,
2002-12-03, 02:03:00,VALID,918.282,VALID,0,VALID,97.953,VALID,-0.101885,VALID,19.0683,VALID,39,VALID,0,
2002-12-03, 02:04:01,VALID,918.28,VALID,0,VALID,98.0572,VALID,-0.101885,VALID,19.0725,VALID,39,VALID,0,
2002-12-03, 02:05:00,VALID,918.279,VALID,0,VALID,98.1946,VALID,-0.101885,VALID,19.0718,VALID,39,VALID,0,
2002-12-03, 02:06:00,VALID,918.269,VALID,0,VALID,98.3421,VALID,-0.0169808,VALID,19.0837,VALID,39,VALID,0,
2002-12-03, 02:07:00,VALID,918.254,VALID,0,VALID,98.4158,VALID,0,VALID,19.1126,VALID,39,VALID,0,
2002-12-03, 02:08:00,VALID,918.237,VALID,0,VALID,98.3879,VALID,0,VALID,19.1091,VALID,39,VALID,0,
2002-12-03, 02:09:01,VALID,918.238,VALID,0,VALID,98.3739,VALID,0.0509425,VALID,19.1091,VALID,39,VALID,0.0137868,
2002-12-03, 02:10:01,VALID,918.229,VALID,0,VALID,98.0636,VALID,0.0339617,VALID,19.041,VALID,39,VALID,0.0203598,
2002-12-03, 02:11:01,VALID,918.218,VALID,0,VALID,97.8017,VALID,0.0169808,VALID,18.9253,VALID,39,VALID,0.0972222,
2002-12-03, 02:12:00,VALID,918.192,VALID,0,VALID,97.9759,VALID,0.0169808,VALID,18.8997,VALID,39,VALID,0,
2002-12-03, 02:13:00,VALID,918.182,VALID,0,VALID,98.2187,VALID,0.0169808,VALID,18.9059,VALID,39,VALID,0,
2002-12-03, 02:14:00,VALID,918.18,VALID,0,VALID,98.412,VALID,0,VALID,18.9479,VALID,39,VALID,0.00982143,
2002-12-03, 02:15:00,VALID,918.16,VALID,0,VALID,98.4998,VALID,0,VALID,18.9839,VALID,39,VALID,0.165179,
2002-12-03, 02:16:00,VALID,918.15,VALID,0,VALID,98.6435,VALID,0,VALID,19.0194,VALID,39,VALID,0.230469,
2002-12-03, 02:17:00,VALID,918.146,VALID,0,VALID,98.6028,VALID,0.0169808,VALID,19.0286,VALID,68,VALID,0.290296,
2002-12-03, 02:18:01,VALID,918.125,VALID,0,VALID,98.5239,VALID,0.0169808,VALID,19.0162,VALID,72,VALID,0.197381,
2002-12-03, 02:19:01,VALID,918.115,VALID,0,VALID,98.4756,VALID,0,VALID,18.9871,VALID,72,VALID,0.0153883,
2002-12-03, 02:20:00,VALID,918.1,VALID,0,VALID,98.4947,VALID,0.0169808,VALID,18.9615,VALID,72,VALID,0,
2002-12-03, 02:21:01,VALID,918.098,VALID,0,VALID,98.4921,VALID,-0.0849042,VALID,18.9433,VALID,72,VALID,0,
2002-12-03, 02:22:00,VALID,918.102,VALID,0,VALID,98.5048,VALID,-0.101885,VALID,18.9205,VALID,72,VALID,0,
2002-12-03, 02:23:00,VALID,918.115,VALID,0,VALID,98.5608,VALID,-0.0849042,VALID,18.9108,VALID,72,VALID,0,
2002-12-03, 02:24:00,VALID,918.119,VALID,0,VALID,98.4502,VALID,-0.101885,VALID,18.8886,VALID,72,VALID,0.159152,
2002-12-03, 02:25:00,VALID,918.125,VALID,0,VALID,98.3294,VALID,-0.0849042,VALID,18.8141,VALID,72,VALID,0.669189,
2002-12-03, 02:26:00,VALID,918.115,VALID,0,VALID,98.5417,VALID,-0.101885,VALID,18.801,VALID,75,VALID,1.0331,
2002-12-03, 02:27:01,VALID,918.107,VALID,0,VALID,98.7681,VALID,-0.101885,VALID,18.8469,VALID,89,VALID,1.17417,
2002-12-03, 02:28:01,VALID,918.083,VALID,0,VALID,98.88,VALID,-0.101885,VALID,18.8621,VALID,95,VALID,1.04072,
2002-12-03, 02:29:00,VALID,918.055,VALID,0,VALID,98.9893,VALID,-0.0849042,VALID,18.9112,VALID,97,VALID,1.03602,
2002-12-03, 02:30:00,VALID,918.018,VALID,0,VALID,99.0008,VALID,-0.0849042,VALID,18.9209,VALID,95,VALID,0.883247,
2002-12-03, 02:31:00,VALID,918.005,VALID,0,VALID,98.9906,VALID,-0.0849042,VALID,18.9276,VALID,94,VALID,0.869081,
2002-12-03, 02:32:00,VALID,917.975,VALID,0,VALID,99.0555,VALID,-0.101885,VALID,18.9172,VALID,102,VALID,0.760268,
2002-12-03, 02:33:00,VALID,917.964,VALID,0,VALID,99.0783,VALID,-0.0849042,VALID,18.9274,VALID,95,VALID,0.661161,
2002-12-03, 02:34:00,VALID,917.942,VALID,0,VALID,99.1381,VALID,-0.0849042,VALID,18.9239,VALID,97,VALID,0.726563,
2002-12-03, 02:35:01,VALID,917.935,VALID,0,VALID,99.2004,VALID,-0.0849042,VALID,18.9438,VALID,84,VALID,0.668997,
2002-12-03, 02:36:01,VALID,917.925,VALID,0,VALID,99.2042,VALID,0,VALID,18.9523,VALID,84,VALID,0.559283,
2002-12-03, 02:37:01,VALID,917.922,VALID,0,VALID,99.2017,VALID,0,VALID,18.9654,VALID,84,VALID,0.611979,
2002-12-03, 02:38:00,VALID,917.92,VALID,0,VALID,99.2347,VALID,-0.0169808,VALID,18.9647,VALID,84,VALID,0.556424,
2002-12-03, 02:39:00,VALID,917.913,VALID,0,VALID,99.2602,VALID,0,VALID,18.9843,VALID,84,VALID,0.503255,
2002-12-03, 02:40:00,VALID,917.909,VALID,0,VALID,99.2831,VALID,0,VALID,18.994,VALID,85,VALID,0.384706,
2002-12-03, 02:41:00,VALID,917.91,VALID,0,VALID,99.3085,VALID,0,VALID,19.0134,VALID,91,VALID,0.400446,
2002-12-03, 02:42:00,VALID,917.89,VALID,0,VALID,99.3225,VALID,0,VALID,19.0296,VALID,107,VALID,0.217187,
2002-12-03, 02:43:00,VALID,917.885,VALID,0,VALID,99.3517,VALID,0,VALID,19.0487,VALID,101,VALID,0.188721,
2002-12-03, 02:44:00,VALID,917.858,VALID,0,VALID,99.381,VALID,0.0169808,VALID,19.0902,VALID,101,VALID,0,
2002-12-03, 02:45:01,VALID,917.849,VALID,0,VALID,99.3835,VALID,0,VALID,19.1133,VALID,101,VALID,0.0103401,
2002-12-03, 02:46:01,VALID,917.838,VALID,0,VALID,99.3873,VALID,0,VALID,19.123,VALID,101,VALID,0,
2002-12-03, 02:47:00,VALID,917.83,VALID,0,VALID,99.3912,VALID,0,VALID,19.1424,VALID,101,VALID,0,
2002-12-03, 02:48:00,VALID,917.822,VALID,0,VALID,99.4013,VALID,-0.0169808,VALID,19.1652,VALID,101,VALID,0,
2002-12-03, 02:49:01,VALID,917.819,VALID,0,VALID,99.4026,VALID,0,VALID,19.1742,VALID,101,VALID,0,
2002-12-03, 02:50:00,VALID,917.81,VALID,0,VALID,99.4026,VALID,0,VALID,19.1647,VALID,101,VALID,0,
2002-12-03, 02:51:00,VALID,917.798,VALID,0,VALID,99.3924,VALID,-0.0169808,VALID,19.1488,VALID,101,VALID,0,
2002-12-03, 02:52:00,VALID,917.8,VALID,0,VALID,99.3937,VALID,0,VALID,19.1525,VALID,101,VALID,0,
2002-12-03, 02:53:00,VALID,917.782,VALID,0,VALID,99.3873,VALID,0.0169808,VALID,19.1322,VALID,101,VALID,0,
2002-12-03, 02:54:01,VALID,917.78,VALID,0,VALID,99.3886,VALID,0.0169808,VALID,19.1421,VALID,101,VALID,0,
2002-12-03, 02:55:01,VALID,917.761,VALID,0,VALID,99.3962,VALID,0.0169808,VALID,19.132,VALID,101,VALID,0,
2002-12-03, 02:56:01,VALID,917.741,VALID,0,VALID,99.3962,VALID,0,VALID,19.1329,VALID,101,VALID,0,
2002-12-03, 02:57:00,VALID,917.726,VALID,0,VALID,99.3988,VALID,0.0169808,VALID,19.1458,VALID,101,VALID,0,
2002-12-03, 02:58:00,VALID,917.723,VALID,0,VALID,99.4001,VALID,0,VALID,19.1357,VALID,101,VALID,0,
2002-12-03, 02:59:00,VALID,917.708,VALID,0,VALID,99.4166,VALID,0,VALID,19.1287,VALID,101,VALID,0,
2002-12-03, 03:00:00,VALID,917.69,VALID,0,VALID,99.4204,VALID,0,VALID,19.1585,VALID,101,VALID,0.13192,
2002-12-03, 03:01:01,VALID,917.685,VALID,0,VALID,99.4306,VALID,0.0169808,VALID,19.1546,VALID,101,VALID,0.0136719,
2002-12-03, 03:02:00,VALID,917.674,VALID,0,VALID,99.4369,VALID,0,VALID,19.1841,VALID,101,VALID,0.0470806,
2002-12-03, 03:03:01,VALID,917.668,VALID,0,VALID,99.4458,VALID,0,VALID,19.2003,VALID,101,VALID,0.0838695,
2002-12-03, 03:04:01,VALID,917.637,VALID,0,VALID,99.4382,VALID,0.0169808,VALID,19.2008,VALID,101,VALID,0.00189394,
2002-12-03, 03:05:00,VALID,917.621,VALID,0,VALID,99.4433,VALID,0.0169808,VALID,19.207,VALID,101,VALID,0.000434028,
2002-12-03, 03:06:01,VALID,917.597,VALID,0,VALID,99.4395,VALID,-0.0849042,VALID,19.2052,VALID,124,VALID,0.39605,
2002-12-03, 03:07:00,VALID,917.584,VALID,0,VALID,99.4446,VALID,-0.101885,VALID,19.199,VALID,172,VALID,0.705729,
2002-12-03, 03:08:01,VALID,917.569,VALID,0,VALID,99.4395,VALID,-0.0849042,VALID,19.1786,VALID,171,VALID,0.846205,
2002-12-03, 03:09:01,VALID,917.572,VALID,0,VALID,99.4458,VALID,-0.0849042,VALID,19.1918,VALID,174,VALID,0.881473,
2002-12-03, 03:10:01,VALID,917.542,VALID,0,VALID,99.4344,VALID,-0.0679233,VALID,19.192,VALID,176,VALID,0.791016,
2002-12-03, 03:11:00,VALID,917.53,VALID,0,VALID,99.442,VALID,-0.0679233,VALID,19.1858,VALID,171,VALID,0.977385,
2002-12-03, 03:12:01,VALID,917.532,VALID,0,VALID,99.4382,VALID,-0.0679233,VALID,19.1858,VALID,173,VALID,1.00896,
2002-12-03, 03:13:01,VALID,917.508,VALID,0,VALID,99.4458,VALID,-0.0849042,VALID,19.1821,VALID,177,VALID,0.927794,
2002-12-03, 03:14:01,VALID,917.507,VALID,0,VALID,99.4458,VALID,-0.0849042,VALID,19.1863,VALID,171,VALID,0.685981,
2002-12-03, 03:15:01,VALID,917.481,VALID,0,VALID,99.4535,VALID,-0.0679233,VALID,19.1722,VALID,175,VALID,0.687283,
2002-12-03, 03:16:01,VALID,917.47,VALID,0,VALID,99.4496,VALID,-0.0849042,VALID,19.1761,VALID,174,VALID,0.554214,
2002-12-03, 03:17:01,VALID,917.455,VALID,0,VALID,99.4636,VALID,-0.0679233,VALID,19.1826,VALID,163,VALID,0.650446,
2002-12-03, 03:18:01,VALID,917.45,VALID,0,VALID,99.47,VALID,-0.0849042,VALID,19.1789,VALID,157,VALID,0.307589,
2002-12-03, 03:19:01,VALID,917.425,VALID,0,VALID,99.4662,VALID,-0.0849042,VALID,19.1793,VALID,157,VALID,0.244141,
2002-12-03, 03:20:01,VALID,917.427,VALID,0,VALID,99.4776,VALID,-0.101885,VALID,19.1756,VALID,157,VALID,0.0363898,
2002-12-03, 03:21:01,VALID,917.421,VALID,0,VALID,99.4891,VALID,0.0169808,VALID,19.1873,VALID,157,VALID,0,
2002-12-03, 03:22:01,VALID,917.413,VALID,0,VALID,99.4738,VALID,0.0169808,VALID,19.197,VALID,157,VALID,0.00331439,
2002-12-03, 03:23:01,VALID,917.406,VALID,0,VALID,99.4891,VALID,0.0509425,VALID,19.2132,VALID,157,VALID,0.000651042,
2002-12-03, 03:24:01,VALID,917.416,VALID,0,VALID,99.4954,VALID,0.0339617,VALID,19.2229,VALID,157,VALID,0,
2002-12-03, 03:25:01,VALID,917.401,VALID,0,VALID,99.4916,VALID,0,VALID,19.2157,VALID,157,VALID,0,
2002-12-03, 03:26:01,VALID,917.389,VALID,0,VALID,99.4891,VALID,0,VALID,19.2229,VALID,157,VALID,0,
2002-12-03, 03:27:01,VALID,917.401,VALID,0,VALID,99.4916,VALID,0.0169808,VALID,19.2162,VALID,157,VALID,0,
2002-12-03, 03:28:01,VALID,917.394,VALID,0,VALID,99.4891,VALID,0.0339617,VALID,19.2363,VALID,157,VALID,0,
2002-12-03, 03:29:01,VALID,917.406,VALID,0,VALID,99.484,VALID,0,VALID,19.2129,VALID,157,VALID,0,
2002-12-03, 03:30:00,VALID,917.409,VALID,0,VALID,99.484,VALID,0.0169808,VALID,19.1963,VALID,157,VALID,0,
2002-12-03, 03:31:00,VALID,917.414,VALID,0,VALID,99.484,VALID,0.0339617,VALID,19.2065,VALID,157,VALID,0,
2002-12-03, 03:32:00,VALID,917.433,VALID,0,VALID,99.4865,VALID,0.0169808,VALID,19.2129,VALID,157,VALID,0,
2002-12-03, 03:33:00,VALID,917.417,VALID,0,VALID,99.498,VALID,0.0169808,VALID,19.2226,VALID,157,VALID,0,
2002-12-03, 03:34:00,VALID,917.423,VALID,0,VALID,99.498,VALID,0.0169808,VALID,19.2356,VALID,157,VALID,0,
2002-12-03, 03:35:00,VALID,917.434,VALID,0,VALID,99.5081,VALID,0,VALID,19.242,VALID,157,VALID,0,
2002-12-03, 03:36:00,VALID,917.419,VALID,0,VALID,99.4992,VALID,0.0169808,VALID,19.2452,VALID,157,VALID,0,
2002-12-03, 03:37:00,VALID,917.43,VALID,0,VALID,99.5145,VALID,0,VALID,19.2616,VALID,157,VALID,0,